Regional Weather Roundup
Issued by NWS

Home | Current Version | Previous Version | Text Only | Print | Product List | Glossary Off
Versions: 1 2 3 4 5 6 7 8 9 10 11 12 13 14 15 16 17 18 19 20 21 22 23 24 25 26 27 28 29 30 31 32 33 34 35 36 37 38 39 40 41 42 43 44 45 46 47 48 49 50

000
ASUS45 KTFX 021704
RWRMT
MONTANA HOURLY WEATHER ROUNDUP
NATIONAL WEATHER SERVICE GREAT FALLS MT
1004 AM MST MON MAR 2 2015

NOTE: "FAIR" INDICATES FEW OR NO CLOUDS BELOW 12000 FEET WITH NO
SIGNIFICANT WEATHER AND/OR OBSTRUCTIONS TO VISIBILITY.

* THESE STATIONS ARE NOT UNDER NWS QUALITY CONTROL. THEY DO NOT
   REPORT WEATHER SUCH AS PRECIPITATION OR FOG.

MTZ001>007-043-021800-
WEST OF THE DIVIDE
CITY           SKY/WX    TMP DP  RH WIND       PRES   REMARKS
KALISPELL      CLOUDY    28  14  56 N8        29.89S WCI  20
MISSOULA       CLOUDY    25  12  58 CALM      29.90F
BUTTE          PTCLDY    21   9  60 S3        29.80F
MULLAN PASS    CLOUDY    25  12  58 VRB3      29.76S
* ANACONDA     SUNNY     25   9  50 E3         N/A
* ESSEX        N/A       21   9  60 SE2        N/A
* LINCOLN      N/A       15   7  70 E1         N/A
* LOOKOUT PASS N/A       26   9  48 SE4        N/A
* POLSON       N/A       28  18  66 N2         N/A
* RONAN APT    CLOUDY    28  21  75 N/A        N/A
* SEELEY LAKE  N/A       15   8  74 N/A        N/A
* THOMP F APT  CLOUDY    31  -2  24 S1         N/A
* YAAK HILL    N/A       25  19  78 N/A        N/A
$$

MTZ008-052>055-021800-
SOUTHWEST MONTANA
CITY           SKY/WX    TMP DP  RH WIND       PRES   REMARKS
BOZEMAN        SUNNY     27  10  49 S3        29.85S
DILLON         SUNNY     25   3  38 SW7       29.80F WCI  17
* W YELLOWSTON SUNNY      8  -6  52 N/A        N/A
* THREE FORKS  SUNNY     25  18  75 SW5        N/A   WCI  19
* BOULDER HILL N/A       25   4  40 NE2        N/A
* MONIDA PASS  N/A       22   3  44 N9         N/A   WCI  12
* RAYNOLDS PAS N/A       11  -5  48 S15        N/A   WCI  -5
* WHITEHALL    N/A       25   8  48 SE2        N/A
* WISE RIVER   N/A       14   3  61 W1         N/A
$$

MTZ009>010-012-014-046-048-049-054-021800-
EAST SLOPES AND CENTRAL MONTANA
CITY           SKY/WX    TMP DP  RH WIND       PRES   REMARKS
CUT BANK       LGT SNOW  27  23  85 N23       29.88R WCI  13
GREAT FALLS    PTSUNNY   32  21  64 N17G25    29.87R WCI  21
* DEARBORN     N/A       32  11  41 SW4        N/A
* EAST GLACIER N/A       23  18  81 NE17       N/A   WCI   9
* MONARCH      N/A       24   5  44 NW14G20    N/A   WCI  12
* PENDROY      N/A       26  24  92 VRB14G20    N/A   WCI  14
* ROGERS PASS  N/A       27   7  42 SE1        N/A
* SWEET GRASS  N/A       25  25 100 N20G34     N/A   WCI  11
$$

MTZ011-013-016-021-035-040-045-047-050-051-021800-
NORTH CENTRAL MONTANA
CITY           SKY/WX    TMP DP  RH WIND       PRES   REMARKS
HAVRE          PTCLDY    32  21  64 NW17      29.85R WCI  21
LEWISTOWN      PTCLDY    34  12  40 NW9       29.81S WCI  27
* CHESTER      N/A       28  21  75 N14G23     N/A   WCI  17
* DENTON       N/A       32  15  49 NW16G22    N/A   WCI  21
* GEYSER       N/A       29  12  49 W17G22     N/A   WCI  17
* JUDITH GAP   N/A       34  12  40 NW16       N/A   WCI  24
* LOMA         N/A       31  21  66 W12G21     N/A   WCI  22
$$

MTZ017>020-022>027-061-062-021800-
NORTHEAST MONTANA
CITY           SKY/WX    TMP DP  RH WIND       PRES   REMARKS
GLASGOW        PTCLDY    27  10  49 S6        29.78F WCI  20
GLENDIVE       SUNNY     27  12  53 S10       29.84F WCI  18
JORDAN         PTCLDY    34  16  48 W12       29.78S WCI  25
SIDNEY         SUNNY     27  10  49 S16       29.86F WCI  15
WOLF POINT     PTCLDY    28  12  51 W8        29.81F WCI  20
* BEAVER HILL  N/A       27  12  53 S20G26     N/A   WCI  13
* CIRCLE       N/A       28  17  63 SW12G17    N/A   WCI  18
* LINDSAY DVD  N/A       23  14  68 S12G17     N/A   WCI  11
* NAVAJO       N/A       21  11  65 SW24G30    N/A   WCI   4
* SACO         N/A       29  14  53 S6         N/A   WCI  23
$$

MTZ028>042-056>058-021800-
SOUTHCENTRAL AND SOUTHEAST MONTANA
CITY           SKY/WX    TMP DP  RH WIND       PRES   REMARKS
BAKER          SUNNY     27  14  58 S9        29.84F WCI  18
BILLINGS       SUNNY     36  12  37 SW18      29.81S WCI  26
LIVINGSTON     SUNNY     28  10  47 NW14      29.81R WCI  17
MILES CITY     SUNNY     27  12  53 S8        29.84F WCI  19
* LAUREL APT   SUNNY     34   9  35 S16G21     N/A   WCI  24
* ROUNDUP APT  PTCLDY    32   7  35 SW8        N/A   WCI  25
* ALZADA       N/A       23  15  71 SE1        N/A
* HYSHAM       N/A       29   9  43 W7G13      N/A   WCI  22
* LAME DEER    N/A       35  10  35 S11        N/A   WCI  27
* REED POINT   N/A       25  16  69 E3         N/A
* ROSCOE HILL  N/A       34  -1  22 W4         N/A
$$

REGIONAL REPORTS...DAKOTAS
CITY           SKY/WX    TMP DP  RH WIND       PRES   REMARKS
WILLISTON      SUNNY     27  12  53 S17G24    29.84F WCI  14
DICKINSON      SUNNY     27  12  53 S24G31    29.85F WCI  12
BEACH          SUNNY     27  16  63 S16G22    29.84F WCI  15
CROSBY         SUNNY     19  12  74 S21G29    29.81F WCI   3
WATFORD CITY   SUNNY     25  12  58 S14G20    29.84F WCI  13
BISMARCK       SUNNY     25  14  63 S17       30.03F WCI  12
GRAND FORKS    PTSUNNY   18   9  68 S13       30.24F WCI   5
FARGO          SUNNY     23  10  57 S15       30.30F WCI  10
BUFFALO SD     SUNNY     28  14  56 S13       29.78F WCI  17
RAPID CITY     PTCLDY    36  21  54 S24G33    29.88F WCI  24
$$

REGIONAL REPORTS...WYOMING/IDAHO/WASHINGTON
CITY           SKY/WX    TMP DP  RH WIND       PRES   REMARKS
GILLETTE       PTSUNNY   28  19  69 S15       29.82F WCI  16
SHERIDAN       PTCLDY    25  10  53 CALM      29.81F
CODY           PTCLDY    30  19  64 SE5       29.80F WCI  25
YELLOWSTONE LA SUNNY      1  -8  65 E3        29.82S
SALMON         SUNNY     25  12  58 CALM      29.87F
MULLAN PASS    CLOUDY    25  12  58 VRB3      29.76S
SAND POINT     CLOUDY    30  19  64 CALM      29.92S
SPOKANE        CLOUDY    32  16  52 N7        29.89S WCI  25

$$




USA.gov is the U.S. government's official web portal to all federal, state and local government web resources and services.